Hourly Data Report for June 22, 2004

TORONTO CITY
ONTARIO

43°40'00.000" N
79°24'00.000" W
112.50 m
6158355
71508
XTO

Download Data

Hourly Data (June 2004)
Hourly Data Report for June 22, 2004
TIME
LST
Temp Definition
°C
Dew Point Definition
°C
Rel Hum Definition
%
Precip. Amount Definition
mm

Wind Dir Definition
10's deg

Wind Spd Definition
km/h
Visibility Definition
km
Stn Press Definition
kPa
Hmdx Definition


Wind Chill Definition


Weather Definition


00:00 16.5 16.2 98   LegendMM LegendMM LegendMM 99.41     LegendNANA
01:00 15.5 15.2 98   LegendMM LegendMM LegendMM 99.38     LegendNANA
02:00 15.6 15.4 99   LegendMM LegendMM LegendMM 99.32     LegendNANA
03:00 15.7 15.5 99   LegendMM LegendMM LegendMM 99.22     LegendNANA
04:00 15.8 15.5 98   LegendMM LegendMM LegendMM 99.16     LegendNANA
05:00 15.8 15.4 97   LegendMM LegendMM LegendMM 99.15     LegendNANA
06:00 16.2 15.7 97   LegendMM LegendMM LegendMM 99.15     LegendNANA
07:00 17.4 16.7 96   LegendMM LegendMM LegendMM 99.11     LegendNANA
08:00 18.1 16.7 92   LegendMM LegendMM LegendMM 99.13     LegendNANA
09:00 18.5 16.6 89   LegendMM LegendMM LegendMM 99.16     LegendNANA
10:00 19.9 17.2 84   LegendMM LegendMM LegendMM 99.21     LegendNANA
11:00 21.5 17.9 80   LegendMM LegendMM LegendMM 99.21 27   LegendNANA
12:00 21.4 17.3 77   LegendMM LegendMM LegendMM 99.25 27   LegendNANA
13:00 21.9 15.5 67   LegendMM LegendMM LegendMM 99.30 26   LegendNANA
14:00 22.3 14.8 63   LegendMM LegendMM LegendMM 99.36 26   LegendNANA
15:00 23.4 14.9 59   LegendMM LegendMM LegendMM 99.40 27   LegendNANA
16:00 22.8 14.1 58   LegendMM LegendMM LegendMM 99.42 26   LegendNANA
17:00 22.4 13.8 58   LegendMM LegendMM LegendMM 99.46 26   LegendNANA
18:00 22.6 13.1 55   LegendMM LegendMM LegendMM 99.48 25   LegendNANA
19:00 21.7 12.7 57   LegendMM LegendMM LegendMM 99.53     LegendNANA
20:00 20.7 13.3 63   LegendMM LegendMM LegendMM 99.59     LegendNANA
21:00 20.1 13.5 66   LegendMM LegendMM LegendMM 99.69     LegendNANA
22:00 18.7 13.4 71   LegendMM LegendMM LegendMM 99.77     LegendNANA
23:00 17.3 11.3 68   LegendMM LegendMM LegendMM 99.83     LegendNANA

Notes on Data Quality.

Legend

  • E = Estimated
  • M = Missing
  • NA = Not Available*
  • [empty] = Indicates an unobserved value
Date modified: